Year,Month,Day,Hour,Minute,Value (Times are PST for temperature in C)
2016,03,31,12,14,16.40
2016,03,31,12,15,16.40
2016,03,31,12,16,16.50
2016,03,31,12,17,16.60
2016,03,31,12,18,16.60
2016,03,31,12,19,16.70
2016,03,31,12,20,16.70
2016,03,31,12,21,16.70
2016,03,31,12,22,16.70
2016,03,31,12,23,16.70
2016,03,31,12,24,16.60
2016,03,31,12,25,16.60
2016,03,31,12,26,16.60
2016,03,31,12,27,16.60
2016,03,31,12,28,16.70
2016,03,31,12,29,16.70
2016,03,31,12,30,16.80
2016,03,31,12,31,16.80
2016,03,31,12,32,16.80
2016,03,31,12,33,16.80
2016,03,31,12,34,16.80
2016,03,31,12,35,16.80
2016,03,31,12,36,16.70
2016,03,31,12,37,16.70
2016,03,31,12,38,16.70
2016,03,31,12,39,16.70
2016,03,31,12,40,16.80
2016,03,31,12,41,16.90
2016,03,31,12,42,17.00
2016,03,31,12,43,17.10
2016,03,31,12,44,17.10
2016,03,31,12,45,17.20
2016,03,31,12,46,17.20
2016,03,31,12,47,17.20
2016,03,31,12,48,17.20
2016,03,31,12,49,17.30
2016,03,31,12,50,17.30
2016,03,31,12,51,17.30
2016,03,31,12,52,17.40
2016,03,31,12,53,17.40
2016,03,31,12,54,17.40
2016,03,31,12,55,17.40
2016,03,31,12,56,17.50
2016,03,31,12,57,17.50
2016,03,31,12,58,17.50
2016,03,31,12,59,17.60
2016,03,31,13,00,17.60
2016,03,31,13,01,17.60
2016,03,31,13,02,17.60
2016,03,31,13,03,17.60
2016,03,31,13,04,17.60
2016,03,31,13,05,17.70
2016,03,31,13,06,17.70
2016,03,31,13,07,17.70
2016,03,31,13,08,17.70
2016,03,31,13,09,17.80
2016,03,31,13,10,17.90
2016,03,31,13,11,18.10
2016,03,31,13,12,18.20
2016,03,31,13,13,18.20
2016,03,31,13,14,18.20
2016,03,31,13,15,18.20
2016,03,31,13,16,18.20
2016,03,31,13,17,18.20
2016,03,31,13,18,18.20
2016,03,31,13,19,18.30
2016,03,31,13,20,18.30
2016,03,31,13,21,18.30
2016,03,31,13,22,18.30
2016,03,31,13,23,18.40
2016,03,31,13,24,18.40
2016,03,31,13,25,18.40
2016,03,31,13,26,18.40
2016,03,31,13,27,18.30
2016,03,31,13,28,18.30
2016,03,31,13,29,18.30
2016,03,31,13,30,18.40
2016,03,31,13,31,18.40
2016,03,31,13,32,18.50
2016,03,31,13,33,18.60
2016,03,31,13,34,18.60
2016,03,31,13,35,18.60
2016,03,31,13,36,18.70
2016,03,31,13,37,18.70
2016,03,31,13,38,18.80
2016,03,31,13,39,18.90
2016,03,31,13,40,18.80
2016,03,31,13,41,18.70
2016,03,31,13,42,18.60
2016,03,31,13,43,18.60
2016,03,31,13,44,18.60
2016,03,31,13,45,18.50
2016,03,31,13,46,18.50
2016,03,31,13,47,18.50
2016,03,31,13,48,18.60
2016,03,31,13,49,18.60
2016,03,31,13,50,18.60
2016,03,31,13,51,18.50
2016,03,31,13,52,18.50
2016,03,31,13,53,18.40
2016,03,31,13,54,18.40
2016,03,31,13,55,18.30
2016,03,31,13,56,18.20
2016,03,31,13,57,18.10
2016,03,31,13,58,18.00
2016,03,31,13,59,18.00
2016,03,31,14,00,18.00
2016,03,31,14,01,18.00
2016,03,31,14,02,18.00
2016,03,31,14,03,17.90
2016,03,31,14,04,17.90
2016,03,31,14,05,17.90
2016,03,31,14,06,17.90
2016,03,31,14,07,17.90
2016,03,31,14,08,17.90
2016,03,31,14,09,17.90
2016,03,31,14,10,17.80
2016,03,31,14,11,17.80
2016,03,31,14,12,17.80
2016,03,31,14,13,17.90
2016,03,31,14,14,18.00
2016,03,31,14,15,18.00
2016,03,31,14,16,18.10
2016,03,31,14,17,18.10
2016,03,31,14,18,18.20
2016,03,31,14,19,18.20
2016,03,31,14,20,18.40
2016,03,31,14,21,18.50
2016,03,31,14,22,18.60
2016,03,31,14,23,18.70
2016,03,31,14,24,18.80
2016,03,31,14,25,18.80
2016,03,31,14,26,18.80
2016,03,31,14,27,18.80
2016,03,31,14,28,18.90
2016,03,31,14,29,19.00
2016,03,31,14,30,19.10
2016,03,31,14,31,19.20
2016,03,31,14,32,19.20
2016,03,31,14,33,19.20
2016,03,31,14,34,19.20
2016,03,31,14,35,19.20
2016,03,31,14,36,19.20
2016,03,31,14,37,19.20
2016,03,31,14,38,19.20
2016,03,31,14,39,19.20
2016,03,31,14,40,19.20
2016,03,31,14,41,19.20
2016,03,31,14,42,19.10
2016,03,31,14,43,19.10
2016,03,31,14,44,19.00
2016,03,31,14,45,18.90
2016,03,31,14,46,18.90
2016,03,31,14,47,18.90
2016,03,31,14,48,18.90
2016,03,31,14,49,18.90
2016,03,31,14,50,18.90
2016,03,31,14,51,18.90
2016,03,31,14,52,18.90
2016,03,31,14,53,18.80
2016,03,31,14,54,18.80
2016,03,31,14,55,18.70
2016,03,31,14,56,18.70
2016,03,31,14,57,18.70
2016,03,31,14,58,18.80
2016,03,31,14,59,18.80
2016,03,31,15,00,18.80
2016,03,31,15,01,18.80
2016,03,31,15,02,18.80
2016,03,31,15,03,18.90
2016,03,31,15,04,18.90
2016,03,31,15,05,18.90
2016,03,31,15,06,18.90
2016,03,31,15,07,19.00
2016,03,31,15,08,19.00
2016,03,31,15,09,19.10
2016,03,31,15,10,19.10
2016,03,31,15,11,19.10
2016,03,31,15,12,19.10
2016,03,31,15,13,19.10
2016,03,31,15,14,19.10
2016,03,31,15,15,19.10
2016,03,31,15,16,19.10
2016,03,31,15,17,19.00
2016,03,31,15,18,19.00
2016,03,31,15,19,19.00
2016,03,31,15,20,19.10
2016,03,31,15,21,19.10
2016,03,31,15,22,19.10
2016,03,31,15,23,19.10
2016,03,31,15,24,19.10
2016,03,31,15,25,19.10
2016,03,31,15,26,19.10
2016,03,31,15,27,19.10
2016,03,31,15,28,19.10
2016,03,31,15,29,19.10
2016,03,31,15,30,19.10
2016,03,31,15,31,19.20
2016,03,31,15,32,19.20
2016,03,31,15,33,19.20
2016,03,31,15,34,19.30
2016,03,31,15,35,19.30
2016,03,31,15,36,19.30
2016,03,31,15,37,19.30
2016,03,31,15,38,19.20
2016,03,31,15,39,19.10
2016,03,31,15,40,19.10
2016,03,31,15,41,19.00
2016,03,31,15,42,19.00
2016,03,31,15,43,18.90
2016,03,31,15,44,18.90
2016,03,31,15,45,18.90
2016,03,31,15,46,18.90
2016,03,31,15,47,18.90
2016,03,31,15,48,18.90
2016,03,31,15,49,18.80
2016,03,31,15,50,18.80
2016,03,31,15,51,18.80
2016,03,31,15,52,18.80
2016,03,31,15,53,18.80
2016,03,31,15,54,18.80
2016,03,31,15,55,18.80
2016,03,31,15,56,18.70
2016,03,31,15,57,18.70
2016,03,31,15,58,18.70
2016,03,31,15,59,18.70
2016,03,31,16,00,18.80
2016,03,31,16,01,18.80
2016,03,31,16,02,18.80
2016,03,31,16,03,18.80
2016,03,31,16,04,18.80
2016,03,31,16,05,18.70
2016,03,31,16,06,18.70
2016,03,31,16,07,18.70
2016,03,31,16,08,18.70
2016,03,31,16,09,18.70
2016,03,31,16,10,18.70
2016,03,31,16,11,18.70
2016,03,31,16,12,18.70
2016,03,31,16,13,18.70
2016,03,31,16,14,18.70
2016,03,31,16,15,18.80
2016,03,31,16,16,18.80
2016,03,31,16,17,18.80
2016,03,31,16,18,18.90
2016,03,31,16,19,18.90
2016,03,31,16,20,19.00
2016,03,31,16,21,19.00
2016,03,31,16,22,19.00
2016,03,31,16,23,19.00
2016,03,31,16,24,19.10
2016,03,31,16,25,19.10
2016,03,31,16,26,19.10
2016,03,31,16,27,19.20
2016,03,31,16,28,19.20
2016,03,31,16,29,19.20
2016,03,31,16,30,19.30
2016,03,31,16,31,19.30
2016,03,31,16,32,19.30
2016,03,31,16,33,19.40
2016,03,31,16,34,19.40
2016,03,31,16,35,19.40
2016,03,31,16,36,19.40
2016,03,31,16,37,19.40
2016,03,31,16,38,19.40
2016,03,31,16,39,19.40
2016,03,31,16,40,19.40
2016,03,31,16,41,19.40
2016,03,31,16,42,19.40
2016,03,31,16,43,19.50
2016,03,31,16,44,19.50
2016,03,31,16,45,19.60
2016,03,31,16,46,19.60
2016,03,31,16,47,19.60
2016,03,31,16,48,19.60
2016,03,31,16,49,19.60
2016,03,31,16,50,19.70
2016,03,31,16,51,19.70
2016,03,31,16,52,19.70
2016,03,31,16,53,19.70
2016,03,31,16,54,19.80
2016,03,31,16,55,19.80
2016,03,31,16,56,19.80
2016,03,31,16,57,19.80
2016,03,31,16,58,19.90
2016,03,31,16,59,19.90
2016,03,31,17,00,20.00
2016,03,31,17,01,20.10
2016,03,31,17,02,20.10
2016,03,31,17,03,20.10
2016,03,31,17,04,20.20
2016,03,31,17,05,20.20
2016,03,31,17,06,20.20
2016,03,31,17,07,20.20
2016,03,31,17,08,20.20
2016,03,31,17,09,20.20
2016,03,31,17,10,20.20
2016,03,31,17,11,20.20
2016,03,31,17,12,20.20
2016,03,31,17,13,20.10
2016,03,31,17,14,20.10
2016,03,31,17,15,20.10
2016,03,31,17,16,20.10
2016,03,31,17,17,20.10
2016,03,31,17,18,20.00
2016,03,31,17,19,20.00
2016,03,31,17,20,20.00
2016,03,31,17,21,19.90
2016,03,31,17,22,19.90
2016,03,31,17,23,19.90
2016,03,31,17,24,19.90
2016,03,31,17,25,19.80
2016,03,31,17,26,19.80
2016,03,31,17,27,19.70
2016,03,31,17,28,19.70
2016,03,31,17,29,19.60
2016,03,31,17,30,19.60
2016,03,31,17,31,19.50
2016,03,31,17,32,19.50
2016,03,31,17,33,19.40
2016,03,31,17,34,19.40
2016,03,31,17,35,19.40
2016,03,31,17,36,19.40
2016,03,31,17,37,19.40
2016,03,31,17,38,19.30
2016,03,31,17,39,19.30
2016,03,31,17,40,19.30
2016,03,31,17,41,19.20
2016,03,31,17,42,19.20
2016,03,31,17,43,19.20
2016,03,31,17,44,19.20
2016,03,31,17,45,19.20
2016,03,31,17,46,19.20
2016,03,31,17,47,19.20
2016,03,31,17,48,19.10
2016,03,31,17,49,19.10
2016,03,31,17,50,19.00
2016,03,31,17,51,18.90
2016,03,31,17,52,18.90
2016,03,31,17,53,18.80
2016,03,31,17,54,18.80
2016,03,31,17,55,18.70
2016,03,31,17,56,18.70
2016,03,31,17,57,18.60
2016,03,31,17,58,18.60
2016,03,31,17,59,18.60
2016,03,31,18,00,18.50
2016,03,31,18,01,18.50
2016,03,31,18,02,18.40
2016,03,31,18,03,18.40
2016,03,31,18,04,18.40
2016,03,31,18,05,18.30
2016,03,31,18,06,18.20
2016,03,31,18,07,18.20
2016,03,31,18,08,18.10
2016,03,31,18,09,18.10
2016,03,31,18,10,18.00
2016,03,31,18,11,18.00
2016,03,31,18,12,17.90
2016,03,31,18,13,17.90
2016,03,31,18,14,17.80
2016,03,31,18,15,17.80
2016,03,31,18,16,17.70
2016,03,31,18,17,17.70
2016,03,31,18,18,17.70
2016,03,31,18,19,17.70
2016,03,31,18,20,17.60
2016,03,31,18,21,17.60
2016,03,31,18,22,17.60
2016,03,31,18,23,17.50
2016,03,31,18,24,17.50
2016,03,31,18,25,17.40
2016,03,31,18,26,17.40
2016,03,31,18,27,17.40
2016,03,31,18,28,17.30
2016,03,31,18,29,17.30
2016,03,31,18,30,17.30
2016,03,31,18,31,17.30
2016,03,31,18,32,17.30
2016,03,31,18,33,17.30
2016,03,31,18,34,17.20
2016,03,31,18,35,17.20
2016,03,31,18,36,17.20
2016,03,31,18,37,17.10
2016,03,31,18,38,17.10
2016,03,31,18,39,17.10
2016,03,31,18,40,17.10
2016,03,31,18,41,17.00
2016,03,31,18,42,17.00
2016,03,31,18,43,16.90
2016,03,31,18,44,16.90
2016,03,31,18,45,16.90
2016,03,31,18,46,16.80
2016,03,31,18,47,16.80
2016,03,31,18,48,16.80
2016,03,31,18,49,16.80
2016,03,31,18,50,16.70
2016,03,31,18,51,16.70
2016,03,31,18,52,16.70
2016,03,31,18,53,16.60
2016,03,31,18,54,16.60
2016,03,31,18,55,16.60
2016,03,31,18,56,16.60
2016,03,31,18,57,16.50
2016,03,31,18,58,16.50
2016,03,31,18,59,16.50
2016,03,31,19,00,16.50
2016,03,31,19,01,16.40
2016,03,31,19,02,16.40
2016,03,31,19,03,16.40
2016,03,31,19,04,16.30
2016,03,31,19,05,16.30
2016,03,31,19,06,16.30
2016,03,31,19,07,16.30
2016,03,31,19,08,16.30
2016,03,31,19,09,16.20
2016,03,31,19,10,16.20
2016,03,31,19,11,16.20
2016,03,31,19,12,16.20
2016,03,31,19,13,16.10
2016,03,31,19,14,16.10
2016,03,31,19,15,16.10
2016,03,31,19,16,16.10
2016,03,31,19,17,16.10
2016,03,31,19,18,16.00
2016,03,31,19,19,16.00
2016,03,31,19,20,16.00
2016,03,31,19,21,16.00
2016,03,31,19,22,15.90
2016,03,31,19,23,15.90
2016,03,31,19,24,15.90
2016,03,31,19,25,15.90
2016,03,31,19,26,15.90
2016,03,31,19,27,15.90
2016,03,31,19,28,15.90
2016,03,31,19,29,15.90
2016,03,31,19,30,15.90
2016,03,31,19,31,15.90
2016,03,31,19,32,15.90
2016,03,31,19,33,16.00
2016,03,31,19,34,16.00
2016,03,31,19,35,16.00
2016,03,31,19,36,16.00
2016,03,31,19,37,16.10
2016,03,31,19,38,16.10
2016,03,31,19,39,16.10
2016,03,31,19,40,16.10
2016,03,31,19,41,16.10
2016,03,31,19,42,16.10
2016,03,31,19,43,16.10
2016,03,31,19,44,16.10
2016,03,31,19,45,16.20
2016,03,31,19,46,16.20
2016,03,31,19,47,16.20
2016,03,31,19,48,16.20
2016,03,31,19,49,16.20
2016,03,31,19,50,16.20
2016,03,31,19,51,16.20
2016,03,31,19,52,16.20
2016,03,31,19,53,16.20
2016,03,31,19,54,16.20
2016,03,31,19,55,16.20
2016,03,31,19,56,16.20
2016,03,31,19,57,16.20
2016,03,31,19,58,16.20
2016,03,31,19,59,16.20
2016,03,31,20,00,16.10
2016,03,31,20,01,16.10
2016,03,31,20,02,16.10
2016,03,31,20,03,16.00
2016,03,31,20,04,16.00
2016,03,31,20,05,15.90
2016,03,31,20,06,15.90
2016,03,31,20,07,15.90
2016,03,31,20,08,15.90
2016,03,31,20,09,15.90
2016,03,31,20,10,15.90
2016,03,31,20,11,15.80
2016,03,31,20,12,15.80
2016,03,31,20,13,15.80
2016,03,31,20,14,15.70
2016,03,31,20,15,15.70
2016,03,31,20,16,15.70
2016,03,31,20,17,15.70
2016,03,31,20,18,15.60
2016,03,31,20,19,15.60
2016,03,31,20,20,15.60
2016,03,31,20,21,15.50
2016,03,31,20,22,15.50
2016,03,31,20,23,15.40
2016,03,31,20,24,15.40
2016,03,31,20,25,15.30
2016,03,31,20,26,15.20
2016,03,31,20,27,15.20
2016,03,31,20,28,15.10
2016,03,31,20,29,15.10
2016,03,31,20,30,15.00
2016,03,31,20,31,14.90
2016,03,31,20,32,14.90
2016,03,31,20,33,14.90
2016,03,31,20,34,14.80
2016,03,31,20,35,14.80
2016,03,31,20,36,14.80
2016,03,31,20,37,14.70
2016,03,31,20,38,14.70
2016,03,31,20,39,14.70
2016,03,31,20,40,14.60
2016,03,31,20,41,14.60
2016,03,31,20,42,14.50
2016,03,31,20,43,14.40
2016,03,31,20,44,14.40
2016,03,31,20,45,14.30
2016,03,31,20,46,14.30
2016,03,31,20,47,14.20
2016,03,31,20,48,14.20
2016,03,31,20,49,14.10
2016,03,31,20,50,14.10
2016,03,31,20,51,14.00
2016,03,31,20,52,13.90
2016,03,31,20,53,13.90
2016,03,31,20,54,13.90
2016,03,31,20,55,13.80
2016,03,31,20,56,13.80
2016,03,31,20,57,13.70
2016,03,31,20,58,13.70
2016,03,31,20,59,13.70
2016,03,31,21,00,13.60
2016,03,31,21,01,13.60
2016,03,31,21,02,13.50
2016,03,31,21,03,13.50
2016,03,31,21,04,13.40
2016,03,31,21,05,13.40
2016,03,31,21,06,13.30
2016,03,31,21,07,13.30
2016,03,31,21,08,13.30
2016,03,31,21,09,13.20
2016,03,31,21,10,13.20
2016,03,31,21,11,13.20
2016,03,31,21,12,13.10
2016,03,31,21,13,13.00
2016,03,31,21,14,13.00
2016,03,31,21,15,13.00
2016,03,31,21,16,12.90
2016,03,31,21,17,12.90
2016,03,31,21,18,12.80
2016,03,31,21,19,12.80
2016,03,31,21,20,12.80
2016,03,31,21,21,12.70
2016,03,31,21,22,12.70
2016,03,31,21,23,12.70
2016,03,31,21,24,12.60
2016,03,31,21,25,12.60
2016,03,31,21,26,12.50
2016,03,31,21,27,12.50
2016,03,31,21,28,12.40
2016,03,31,21,29,12.40
2016,03,31,21,30,12.30
2016,03,31,21,31,12.30
2016,03,31,21,32,12.30
2016,03,31,21,33,12.20
2016,03,31,21,34,12.20
2016,03,31,21,35,12.20
2016,03,31,21,36,12.20
2016,03,31,21,37,12.10
2016,03,31,21,38,12.10
2016,03,31,21,39,12.00
2016,03,31,21,40,12.00
2016,03,31,21,41,11.90
2016,03,31,21,42,11.90
2016,03,31,21,43,11.90
2016,03,31,21,44,11.90
2016,03,31,21,45,11.80
2016,03,31,21,46,11.80
2016,03,31,21,47,11.80
2016,03,31,21,48,11.80
2016,03,31,21,49,11.80
2016,03,31,21,50,11.70
2016,03,31,21,51,11.70
2016,03,31,21,52,11.70
2016,03,31,21,53,11.70
2016,03,31,21,54,11.60
2016,03,31,21,55,11.60
2016,03,31,21,56,11.50
2016,03,31,21,57,11.50
2016,03,31,21,58,11.40
2016,03,31,21,59,11.40
2016,03,31,22,00,11.40
2016,03,31,22,01,11.40
2016,03,31,22,02,11.30
2016,03,31,22,03,11.30
2016,03,31,22,04,11.30
2016,03,31,22,05,11.30
2016,03,31,22,06,11.20
2016,03,31,22,07,11.20
2016,03,31,22,08,11.20
2016,03,31,22,09,11.10
2016,03,31,22,10,11.10
2016,03,31,22,11,11.10
2016,03,31,22,12,11.10
2016,03,31,22,13,11.10
2016,03,31,22,14,11.00
2016,03,31,22,15,11.00
2016,03,31,22,16,11.00
2016,03,31,22,17,11.00
2016,03,31,22,18,10.90
2016,03,31,22,19,10.90
2016,03,31,22,20,10.90
2016,03,31,22,21,10.90
2016,03,31,22,22,10.80
2016,03,31,22,23,10.80
2016,03,31,22,24,10.80
2016,03,31,22,25,10.80
2016,03,31,22,26,10.80
2016,03,31,22,27,10.70
2016,03,31,22,28,10.70
2016,03,31,22,29,10.70
2016,03,31,22,30,10.70
2016,03,31,22,31,10.60
2016,03,31,22,32,10.60
2016,03,31,22,33,10.60
2016,03,31,22,34,10.60
2016,03,31,22,35,10.50
2016,03,31,22,36,10.50
2016,03,31,22,37,10.50
2016,03,31,22,38,10.50
2016,03,31,22,39,10.40
2016,03,31,22,40,10.40
2016,03,31,22,41,10.40
2016,03,31,22,42,10.40
2016,03,31,22,43,10.30
2016,03,31,22,44,10.30
2016,03,31,22,45,10.30
2016,03,31,22,46,10.30
2016,03,31,22,47,10.30
2016,03,31,22,48,10.20
2016,03,31,22,49,10.20
2016,03,31,22,50,10.20
2016,03,31,22,51,10.20
2016,03,31,22,52,10.20
2016,03,31,22,53,10.20
2016,03,31,22,54,10.10
2016,03,31,22,55,10.10
2016,03,31,22,56,10.10
2016,03,31,22,57,10.10
2016,03,31,22,58,10.10
2016,03,31,22,59,10.00
2016,03,31,23,00,10.00
2016,03,31,23,01,10.00
2016,03,31,23,02,10.00
2016,03,31,23,03,9.90
2016,03,31,23,04,9.90
2016,03,31,23,05,9.90
2016,03,31,23,06,9.90
2016,03,31,23,07,9.90
2016,03,31,23,08,9.80
2016,03,31,23,09,9.80
2016,03,31,23,10,9.80
2016,03,31,23,11,9.80
2016,03,31,23,12,9.80
2016,03,31,23,13,9.80
2016,03,31,23,14,9.70
2016,03,31,23,15,9.70
2016,03,31,23,16,9.70
2016,03,31,23,17,9.70
2016,03,31,23,18,9.70
2016,03,31,23,19,9.60
2016,03,31,23,20,9.60
2016,03,31,23,21,9.60
2016,03,31,23,22,9.60
2016,03,31,23,23,9.60
2016,03,31,23,24,9.60
2016,03,31,23,25,9.50
2016,03,31,23,26,9.50
2016,03,31,23,27,9.50
2016,03,31,23,28,9.50
2016,03,31,23,29,9.40
2016,03,31,23,30,9.40
2016,03,31,23,31,9.40
2016,03,31,23,32,9.40
2016,03,31,23,33,9.40
2016,03,31,23,34,9.40
2016,03,31,23,35,9.40
2016,03,31,23,36,9.30
2016,03,31,23,37,9.30
2016,03,31,23,38,9.30
2016,03,31,23,39,9.30
2016,03,31,23,40,9.30
2016,03,31,23,41,9.30
2016,03,31,23,42,9.30
2016,03,31,23,43,9.30
2016,03,31,23,44,9.30
2016,03,31,23,45,9.20
2016,03,31,23,46,9.20
2016,03,31,23,47,9.20
2016,03,31,23,48,9.20
2016,03,31,23,49,9.20
2016,03,31,23,50,9.20
2016,03,31,23,51,9.20
2016,03,31,23,52,9.20
2016,03,31,23,53,9.20
2016,03,31,23,54,9.10
2016,03,31,23,55,9.10
2016,03,31,23,56,9.10
2016,03,31,23,57,9.10
2016,03,31,23,58,9.10
2016,03,31,23,59,9.10
